TimeCST,TemperatureF,Dew PointF,Humidity,Sea Level PressureIn,VisibilityMPH,Wind Direction,Wind SpeedMPH,Gust SpeedMPH,PrecipitationIn,Events,Conditions,WindDirDegrees,DateUTC
12:15 AM,39.2,33.8,81,30.16,9.0,Calm,Calm,-,N/A,,Clear,0,2013-02-12 06:15:00
12:35 AM,37.4,32.0,81,30.16,10.0,Calm,Calm,-,N/A,,Clear,0,2013-02-12 06:35:00
1:15 AM,35.6,30.2,81,30.16,10.0,WNW,4.6,-,N/A,,Clear,300,2013-02-12 07:15:00
1:35 AM,35.6,30.2,81,30.16,10.0,West,3.5,-,N/A,,Clear,270,2013-02-12 07:35:00
1:55 AM,35.6,30.2,81,30.16,10.0,West,3.5,-,N/A,,Clear,280,2013-02-12 07:55:00
2:35 AM,33.8,30.2,87,30.15,10.0,Calm,Calm,-,N/A,,Clear,0,2013-02-12 08:35:00
2:55 AM,33.8,30.2,87,30.15,10.0,NW,4.6,-,N/A,,Clear,310,2013-02-12 08:55:00
3:15 AM,33.8,30.2,87,30.15,10.0,Calm,Calm,-,N/A,,Clear,0,2013-02-12 09:15:00
3:35 AM,33.8,30.2,87,30.15,10.0,Calm,Calm,-,N/A,,Clear,0,2013-02-12 09:35:00
3:55 AM,33.8,28.4,81,30.13,10.0,NW,3.5,-,N/A,,Clear,320,2013-02-12 09:55:00
4:15 AM,33.8,28.4,81,30.13,10.0,Calm,Calm,-,N/A,,Clear,0,2013-02-12 10:15:00
4:55 AM,32.0,28.4,87,30.10,10.0,WNW,4.6,-,N/A,,Clear,300,2013-02-12 10:55:00
5:15 AM,32.0,30.2,93,30.10,10.0,WSW,3.5,-,N/A,,Clear,250,2013-02-12 11:15:00
5:35 AM,30.2,26.6,86,30.09,10.0,Calm,Calm,-,N/A,,Clear,0,2013-02-12 11:35:00
5:55 AM,30.2,26.6,86,30.10,10.0,WNW,6.9,-,N/A,,Clear,300,2013-02-12 11:55:00
6:15 AM,30.2,28.4,93,30.11,10.0,West,4.6,-,N/A,,Clear,280,2013-02-12 12:15:00
6:35 AM,30.2,28.4,93,30.10,10.0,Calm,Calm,-,N/A,,Clear,0,2013-02-12 12:35:00
6:56 AM,30.2,28.4,93,30.12,10.0,West,4.6,-,N/A,,Clear,280,2013-02-12 12:56:00
7:15 AM,32.0,28.4,87,30.13,10.0,Calm,Calm,-,N/A,,Clear,0,2013-02-12 13:15:00
7:35 AM,33.8,28.4,81,30.17,10.0,West,3.5,-,N/A,,Clear,270,2013-02-12 13:35:00
8:35 AM,37.4,30.2,75,30.10,10.0,Calm,Calm,-,N/A,,Clear,0,2013-02-12 14:35:00
9:15 AM,37.4,30.2,75,30.09,10.0,Calm,Calm,-,N/A,,Clear,0,2013-02-12 15:15:00
9:35 AM,37.4,30.2,75,30.09,10.0,Calm,Calm,-,N/A,,Clear,0,2013-02-12 15:35:00
10:15 AM,39.2,33.8,81,30.09,10.0,WNW,3.5,-,N/A,,Clear,300,2013-02-12 16:15:00
10:35 AM,39.2,33.8,81,30.10,10.0,Calm,Calm,-,N/A,,Mostly Cloudy,0,2013-02-12 16:35:00
10:55 AM,39.2,33.8,81,30.12,10.0,Calm,Calm,-,N/A,,Mostly Cloudy,0,2013-02-12 16:55:00
11:16 AM,39.2,33.8,81,30.13,10.0,WSW,3.5,-,N/A,,Overcast,240,2013-02-12 17:16:00
11:35 AM,41.0,32.0,70,30.11,10.0,WSW,3.5,-,N/A,,Overcast,250,2013-02-12 17:35:00
11:55 AM,42.8,32.0,66,30.12,10.0,WSW,4.6,-,N/A,,Mostly Cloudy,250,2013-02-12 17:55:00
12:15 PM,42.8,30.2,61,30.11,10.0,Calm,Calm,-,N/A,,Overcast,0,2013-02-12 18:15:00
12:55 PM,44.6,30.2,57,30.06,10.0,SSE,4.6,-,N/A,,Overcast,150,2013-02-12 18:55:00
1:15 PM,44.6,33.8,66,30.03,10.0,East,4.6,-,N/A,,Overcast,100,2013-02-12 19:15:00
1:36 PM,44.6,32.0,61,30.00,10.0,East,5.8,-,N/A,,Overcast,80,2013-02-12 19:36:00
1:55 PM,44.6,33.8,66,29.98,10.0,ENE,5.8,-,N/A,,Overcast,60,2013-02-12 19:55:00
2:55 PM,46.4,33.8,62,29.98,10.0,East,4.6,-,N/A,,Overcast,80,2013-02-12 20:55:00
3:15 PM,46.4,33.8,62,29.99,10.0,NE,3.5,-,N/A,,Overcast,50,2013-02-12 21:15:00
3:35 PM,44.6,35.6,71,29.98,10.0,Calm,Calm,-,N/A,,Overcast,0,2013-02-12 21:35:00
4:15 PM,42.8,37.4,81,29.97,8.0,NNE,5.8,-,N/A,,Overcast,30,2013-02-12 22:15:00
4:35 PM,42.8,37.4,81,29.95,8.0,NE,6.9,-,N/A,,Overcast,40,2013-02-12 22:35:00
4:55 PM,42.8,37.4,81,29.96,8.0,NE,3.5,-,N/A,,Overcast,50,2013-02-12 22:55:00
5:16 PM,42.8,37.4,81,29.95,8.0,NE,5.8,-,N/A,,Overcast,40,2013-02-12 23:16:00
5:35 PM,42.8,37.4,81,29.93,10.0,NNE,8.1,-,N/A,,Overcast,30,2013-02-12 23:35:00
5:55 PM,41.0,37.4,87,29.91,10.0,NNE,5.8,-,0.03,,Overcast,30,2013-02-12 23:55:00
6:35 PM,41.0,37.4,87,29.91,10.0,NE,5.8,-,N/A,,Overcast,50,2013-02-13 00:35:00
6:55 PM,41.0,37.4,87,29.90,10.0,ENE,6.9,-,N/A,,Overcast,60,2013-02-13 00:55:00
7:35 PM,41.0,37.4,87,29.90,10.0,NNE,4.6,-,N/A,,Overcast,30,2013-02-13 01:35:00
7:55 PM,41.0,37.4,87,29.90,10.0,NNE,3.5,-,N/A,,Overcast,20,2013-02-13 01:55:00
8:15 PM,41.0,37.4,87,29.89,9.0,North,5.8,-,0.01,,Overcast,360,2013-02-13 02:15:00
8:36 PM,41.0,37.4,87,29.91,10.0,NW,6.9,-,0.02,,Overcast,320,2013-02-13 02:36:00
8:55 PM,41.0,37.4,87,29.91,10.0,WNW,3.5,-,0.02,,Overcast,300,2013-02-13 02:55:00
9:15 PM,41.0,39.2,93,29.92,10.0,WNW,5.8,-,N/A,,Overcast,300,2013-02-13 03:15:00
9:55 PM,41.0,37.4,87,29.92,7.0,NNW,5.8,-,N/A,,Overcast,330,2013-02-13 03:55:00
10:15 PM,39.2,39.2,100,29.92,7.0,WNW,5.8,-,0.01,,Overcast,300,2013-02-13 04:15:00
10:35 PM,39.2,37.4,93,29.91,5.0,NW,4.6,-,0.02,,Overcast,310,2013-02-13 04:35:00
10:55 PM,39.2,37.4,93,29.91,6.0,WNW,4.6,-,0.02,,Overcast,300,2013-02-13 04:55:00
11:15 PM,39.2,37.4,93,29.91,5.0,NNW,5.8,-,0.02,,Overcast,340,2013-02-13 05:15:00
11:35 PM,39.2,37.4,93,29.91,4.0,NW,4.6,-,0.02,,Overcast,320,2013-02-13 05:35:00